Location: Trout Lake
(45.9980°N, 121.5270°W)
Time: 19:09:51
(UTC-08:00)

Lacrosse 4 Rocket - Pass Details

Date: 06 December 2023
Orbit: 530 x 597 km, 68.0° (Epoch: 22 February)

Event Time Altitude Azimuth Distance (km) Brightness Sun altitude
Rises 17:33:29 0° 326° (NNW) 2,838 5.1 -12.1°
Reaches altitude 10° 17:35:46 10° 324° (NW) 1,924 4.3 -12.5°
Maximum altitude 17:40:03 67° 243° (WSW) 635 1.8 -13.2°
Drops below altitude 10° 17:44:13 10° 161° (SSE) 1,870 4.0 -13.9°
Sets 17:46:24 0° 158° (SSE) 2,751 4.9 -14.2°
